Location: Squirrel Cove
(50.1074°N, 124.9139°W)
Time: 18:25:55
(UTC-07:00)

ZACube-1 - Visible Passes

Search period start: 18 May 2022 00:00
Search period end: 28 May 2022 00:00
Orbit: 581 x 663 km, 97.6° (Epoch: 18 May)

Date Brightness Start Highest point End Pass type
(mag) Time Alt. Az. Time Alt. Az. Time Alt. Az.
18 May ? 04:37:57 10° NE 04:41:26 25° E 04:44:51 10° SSE visible
22 May ? 04:14:24 10° NE 04:16:50 15° E 04:19:17 10° SE visible
23 May ? 04:31:41 10° NE 04:34:58 22° E 04:38:14 10° SE visible
27 May ? 04:08:11 10° ENE 04:10:15 13° E 04:12:18 10° ESE visible
